Regional Weather Roundup
Issued by NWS

Home | Current Version | Previous Version | Text Only | Print | Product List | Glossary On
Versions: 1 2 3 4 5 6 7 8 9 10 11 12 13 14 15 16 17 18 19 20 21 22 23 24 25 26 27 28 29 30 31 32 33 34 35 36 37 38 39 40 41 42 43 44 45 46 47 48 49 50
000
ASUS44 KOUN 200410
RWROK

WEATHER ROUNDUP FOR OKLAHOMA
NATIONAL WEATHER SERVICE NORMAN OK
1100 PM CDT SAT AUG 19 2017

NOTE: "FAIR" INDICATES FEW OR NO CLOUDS BELOW 12,000 FEET WITH NO
      SIGNIFICANT WEATHER AND/OR OBSTRUCTIONS TO VISIBILITY.

OKZ001>007-009>012-014-015-017-200500-
NORTHWEST OKLAHOMA AND THE PANHANDLE

CITY           SKY/WX    TMP DP  RH WIND       PRES   REMARKS
GAGE           CLOUDY    82  67  60 S16       29.98R
GUYMON         CLEAR     74  67  78 S8        29.99R
ENID/WOODRING  MOCLDY    82  72  69 S10       29.92R
$$

OKZ016-021>023-033>039-044-045-200500-
SOUTHWEST OKLAHOMA

CITY           SKY/WX    TMP DP  RH WIND       PRES   REMARKS
LAWTON/REGL    CLEAR     77  73  87 MISG      29.98R
LAWTON/FT SILL CLEAR     80  72  75 SW3       29.97R
FREDERICK      PTCLDY    76  70  82 SE6       29.95R
CLINTON        PTCLDY    77  66  68 S9        30.00R
HOBART         CLEAR     79  67  66 S9        29.99R
ALTUS AFB      PTCLDY    74  68  81 N8        29.98R
$$

OKZ018>020-024>031-200500-
CENTRAL OKLAHOMA

CITY           SKY/WX    TMP DP  RH WIND       PRES   REMARKS
OKLAHOMA CITY  PTCLDY    76  72  87 S8        29.97R
OKC/WILEY POST CLEAR     81  73  76 S10       29.97R
OKC/TINKER AFB CLEAR     80  71  75 S9        29.97R
STILLWATER     CLEAR     82  73  74 S9        29.94R
GUTHRIE        PTCLDY    81  73  76 S7        29.94S
$$

OKZ008-013-054>072-200500-
NORTHEAST OKLAHOMA

CITY           SKY/WX    TMP DP  RH WIND       PRES   REMARKS
TULSA          PTCLDY    88  74  63 S9        29.93R HX  96
TULSA/JONES    CLEAR     87  74  64 S5        29.94R HX  95
PONCA CITY     PTCLDY    86  73  65 S7        29.92R HX  93
BARTLESVILLE   CLOUDY    82  77  84 CALM      29.94R HX  90
MUSKOGEE       CLEAR     81  78  91 S5        29.97R
$$

OKZ032-040>043-046>053-073>077-200500-
SOUTH CENTRAL/SOUTHEAST OKLAHOMA

CITY           SKY/WX    TMP DP  RH WIND       PRES   REMARKS
ARDMORE/DWNTWN PTCLDY    79  73  83 CALM      29.98R
MCALESTER      PTCLDY    85  76  74 S3        29.98R HX  94
$$





USA.gov is the U.S. government's official web portal to all federal, state and local government web resources and services.